DELTA 1 DEB, 42640

Orbit data source: Space-Track

DELTA 1 DEB, 42640 is space debris in SSO originally from a launch on Thu, 12 Jun 1975 UTC launched from the Air Force Western Test Range (AFWTR). Debris objects in space refer to the collection of defunct objects orbiting the Earth. Examples of debris include non-operational satellites, rocket bodies, and fragments generated from explosions, collisions, or faulty payload assembly.

Loading next visibility...
Identifier
42640, 1975-052LZ
Orbit
SSO
Country
Flag of USUS
Related business
Manufacturer
Unknown
Mission
Spacecraft
Bus & Motor
Unknown
Mass
Unknown
Launch date (UTC)
1975-06-12 (50 years ago)
Launch vehicle
Unknown
Launch site
Air Force Western Test Range (AFWTR)
Object type
Payload
Rocket body
Debris
Shape & HBR
Unknown shape, 0.1 m
Radar Cross Section
Small (<0.1 m²)

Expand to show TLE details & history
Last TLE update: 1 week ago

TLE from 1 week ago
0 DELTA 1 DEB
1 42640U 75052LZ  25281.43543509  .00000577  00000-0  91878-3 0  9991
2 42640  99.7973  91.5530 0215973 326.8991  59.9509 13.44995484582205
Epoch: 2025-10-08T10:27Z
TLE epoch observation values (Epoch: 2025-10-08T10:27:01.591Z)
Latitude
28.60389°
Longitude
-87.88876°
Altitude
1,016.009 km
Speed
7.385 km/s
True Right ascension
05h 44m 42s
True Declination
28° 27' 53"
Sunlit
Object was in daylight at epoch
Visualization orbit readout
Latitude
Unknown
Longitude
Unknown
Altitude
Unknown
Speed
Unknown
Apparent Right ascension
Unknown
Apparent Declination
Unknown
Sunlit
N/A
Visualization observer readout
Local Sidereal Time
07:25:47
Azimuth
Unknown
Elevation
Unknown
Doppler factor
Unknown
Orbital elements
Apogee altitude
1,249.289 km
Perigee altitude
926.79 km
Semi-major axis
7,466.176 km
Eccentricity
0.0216
Inclination
99.7973°
RAAN
91.553°
Arg. of periapsis
326.8991°
True anomaly
62.12196°
Mean anomaly
59.9509°
Eccentric anomaly
61.03354°
Mean motion
3.36431 °/min
Orbital period
107.01 mins
BSTAR
0.00091878
Loading maneuver chart data...
Computing Atmospheric mass density...

Documentation

Showing up to 5 results
|